Location: Kapuskasing
(49.3803°N, 82.4001°W)
Time: 10:52:11
(UTC-04:00)

RS-44 - Pass Details

Date: 19 March 2026
Orbit: 1175 x 1510 km, 82.5° (Epoch: 11 April)

Event Time Altitude Azimuth Distance (km) Brightness Sun altitude
Rises 04:28:04 0° 346° (NNW) 4,432 ? -29.0°
Reaches altitude 10° 04:30:55 10° 342° (NNW) 3,497 ? -28.7°
Maximum altitude 04:38:52 49° 271° (W) 1,828 ? -27.6°
Enters shadow 04:39:23 48° 261° (W) 1,841 ? -27.6°
